Terminal Aerodrome Forecast
Issued by NWS Jackson, KY

Home | Current Version | Previous Version | Text Only | Print | Product List | Glossary On
Versions: 1 2 3 4 5 6 7 8 9 10 11 12 13
034
FTUS43 KJKL 040535
TAFJKL
TAF
KJKL 040535Z 0406/0506 29005G15KT P6SM BKN035
     FM040700 31007KT P6SM BKN025
     FM041500 31005KT P6SM SCT035=

USA.gov is the U.S. government's official web portal to all federal, state and local government web resources and services.